Flag for Indonesia Weather past 2 weeks in Malang, Java, Indonesia

90 °F

Scattered clouds.

Feels Like: 103 °F
Forecast: 73 / 88 °F
Wind: 8 mph from North

Location: Jakarta / Soekarno-Hatta

Current Time: Nov 30, 2015 at 1:50:06 PM

Latest Report: Nov 30, 2015 at 1:00 PM

Visibility: 6 mi

Pressure: 29.80 "Hg

Humidity: 67%

Dew point: 77 °F

Location of MalangLocation

Historic Weather in Malang — Graph


Malang temperature yesterday

Maximum temperature yesterday: 84 °F (at 3:30 PM)
Minimum temperature yesterday: 75 °F (at 9:00 AM)
Average temperature yesterday: 80 °F

Past Weeks' High & Low Weather Summary

High95 °F (Nov 15, 12:00 PM)100% (Nov 17, 3:30 AM)29.95 "Hg (Nov 17, 3:30 AM)
Low41 °F (Nov 17, 3:30 AM)44% (Nov 25, 12:00 PM)29.68 "Hg (Nov 20, 3:00 PM)
Average83 °F75%29.80 "Hg
* Reported Nov 15 12:00 Noon — Nov 30 12:30 PM, Malang, Weather by CustomWeather, © 2015

Note: Actual official high and low records may vary slightly from our data, if they occured in-between our weather recording intervals... More about our weather records


Malang weather history for previous 24 hours

Time TempWeatherWind HumidityBarometerVisibility
12:30 PM
Mon, Nov 30
91 °FScattered clouds.8 mph59%29.80 "HgN/A
12:00 PM91 °FScattered clouds.6 mph59%29.83 "Hg4 mi
11:30 AM91 °FScattered clouds.7 mph59%29.83 "Hg4 mi
10:30 AM90 °FScattered clouds.3 mph63%29.83 "Hg5 mi
10:00 AM90 °FScattered clouds.2 mph63%29.86 "Hg4 mi
9:30 AM88 °FPassing clouds.5 mph66%29.86 "Hg5 mi
9:00 AM86 °FPassing clouds.2 mph70%29.86 "Hg4 mi
8:00 AM81 °FHaze.3 mph94%29.89 "Hg3 mi
7:30 AM81 °FFog.7 mph94%29.86 "Hg2 mi
7:00 AM79 °FFog.8 mph100%29.86 "Hg2 mi
6:30 AM79 °FFog.8 mph100%29.86 "Hg2 mi
6:00 AM79 °FFog.5 mph100%29.86 "Hg1 mi
5:30 AM77 °FFog.3 mph100%29.86 "Hg1 mi
5:00 AM77 °FFog.5 mph100%29.86 "Hg2 mi
4:30 AM77 °FFog.3 mph94%29.86 "Hg1 mi
4:00 AM77 °FFog.2 mph100%29.86 "Hg1 mi
3:30 AM77 °FFog.2 mph100%29.86 "Hg1 mi
3:00 AM77 °FFog.2 mph100%29.83 "Hg1 mi
2:00 AM77 °FFog.5 mph100%29.86 "Hg1 mi
1:30 AM77 °FFog.6 mph100%29.86 "Hg2 mi
1:00 AM79 °FFog.7 mph94%29.86 "Hg2 mi
12:30 AM79 °FPassing clouds.8 mph94%29.86 "Hg2 mi
12:00 AM77 °FFog.2 mph100%29.89 "Hg1 mi
11:30 PM
Sun, Nov 29
77 °FFog.2 mph100%29.89 "Hg1 mi
11:00 PM79 °FFog.3 mph94%29.89 "Hg1 mi
10:30 PM79 °FFog.3 mph94%29.92 "Hg1 mi
10:00 PM79 °FFog.3 mph94%29.92 "Hg1 mi
9:30 PM79 °FFog.5 mph89%29.92 "Hg1 mi
9:00 PM79 °FFog.5 mph89%29.89 "Hg1 mi
8:30 PM79 °FFog.5 mph89%29.89 "Hg2 mi
8:00 PM82 °FFog.6 mph79%29.89 "Hg3 mi
7:30 PM82 °FFog.7 mph79%29.86 "Hg3 mi
7:00 PM81 °FFog.2 mph89%29.86 "Hg3 mi
6:30 PM82 °FPassing clouds.2 mph84%29.86 "Hg4 mi
6:00 PM82 °FPassing clouds.3 mph84%29.86 "Hg4 mi
5:30 PM82 °FPassing clouds.3 mph84%29.83 "Hg4 mi
4:00 PM84 °FScattered clouds.2 mph74%29.83 "Hg5 mi
3:30 PM84 °FScattered clouds.2 mph74%29.83 "Hg4 mi
3:00 PM82 °FScattered clouds.3 mph79%29.80 "Hg4 mi
2:30 PM82 °FBroken clouds.2 mph79%29.83 "Hg4 mi
2:00 PM82 °FBroken clouds.2 mph79%29.86 "Hg4 mi
1:30 PM82 °FBroken clouds.2 mph79%29.86 "Hg4 mi
1:00 PM82 °FBroken clouds.2 mph79%29.86 "Hg4 mi
Weather by CustomWeather, © 2015

See weather overviewHow to use our weather pages